Location: Eymir
(36.7333°N, 29.7833°E)
Time: 18:57:25
(UTC+00:00)

BREEZE-M DEB (TANK) - Pass Details

Date: 14 January 2026
Orbit: 321 x 14414 km, 49.6° (Epoch: 16 February)

Event Time Altitude Azimuth Distance (km) Brightness Sun altitude
Exits shadow 03:23:16 52° 310° (NW) 832 3.5 -21.6°
Maximum altitude 03:24:15 88° 36° (NE) 783 3.6 -21.4°
Drops below altitude 10° 03:34:06 10° 129° (SE) 4,880 8.7 -19.5°
Sets 03:41:19 0° 130° (SE) 7,762 10.0 -18.1°
